Location: Albany
(35.0170°S, 117.8920°E)
Time: 17:32:14
(UTC+08:00)

Explorer 11/Cluster Stage 4 - Pass Details

Date: 28 January 2021
Orbit: 467 x 1257 km, 28.8° (Epoch: 02 March)

Event Time Altitude Azimuth Distance (km) Brightness Sun altitude
Rises 04:23:12 0° 340° (NNW) 4,160 - -11.8°
Exits shadow 04:24:20 - 344° (NNW) 3,889 9.7 -11.6°
Reaches altitude 10° 04:28:23 10° 6° (N) 3,111 9.4 -10.9°
Maximum altitude 04:31:15 12° 28° (NNE) 2,865 9.4 -10.4°
Drops below altitude 10° 04:34:00 10° 50° (NE) 2,956 9.8 -9.9°
Sets 04:38:36 0° 78° (ENE) 3,736 10.9 -9.1°
